sat.trackr.live / text

‹ back to catalog

STARLINK-35883

NORAD 66892 · 2025-283Q

PAYLOAD ACTIVE UNKNOWN

§ Identity

Operator
Country
US
Launch date
2025-12-04
Launch site
AFWTR
Launch vehicle
Mass (kg)
RCS (m²)

Purposes: comms

External: N2YO · Heavens-Above · Gunter

§ Orbital elements

Epoch: 2026-05-24T23:11:55.701888Z

Period
94.11 min
Inclination
53.1597°
Eccentricity
0.0001192
Mean motion
15.30192614 rev/d
Perigee alt
474.4 km
Apogee alt
476.1 km
Semi-major
6,853.4 km
B*
7.0191e-4
RAAN
29.7889°
Arg perigee
81.3476°
Mean anomaly
278.7660°
Rev number
2,752

§ Raw data

STARLINK-358831 66892U 25283Q   26144.96661692  .00020482  00000+0  70191-3 0  99992 66892  53.1597  29.7889 0001192  81.3476 278.7660 15.30192614 27522

JSON: /api/v1/satellites/66892 · /tle

For live sub-satellite position, see the globe view (requires WebGL).

§ Visibility from observer

Set your observer location to see the next 7 days of passes ≥ 10°. The values pass through the URL so the page stays shareable.

No JS? Fill the form by hand. The geolocation button needs JavaScript.